Flag Weather past 2 weeks in Rheda-Wiedenbrück, North Rhine-Westphalia, Germany

Now
36 °F

Passing clouds.


Feels Like: 26 °F
Forecast: 31 / 40 °F
Wind: 16 mph from Southeast

Location: Paderborn / Lippstadt

Current Time: Nov 28, 2014 at 7:02:37 AM

Latest Report: Nov 28, 2014 at 6:20 AM


Visibility: N/A

Pressure: 29.80 "Hg

Humidity: 93%

Dew point: 34 °F

Location of Rheda-WiedenbrückLocation

Historic Weather in Rheda-Wiedenbrück — Graph

°F

Rheda-Wiedenbrück temperature yesterday

Maximum temperature yesterday: 41 °F (at 12:50 PM)
Minimum temperature yesterday: 36 °F (at 7:50 AM)
Average temperature yesterday: 39 °F

Past Weeks' High & Low Weather Summary

 TemperatureHumidityPressure
High57 °F (Nov 23, 12:50 PM)100% (Nov 13, 5:20 AM)30.33 "Hg (Nov 13, 5:20 AM)
Low30 °F (Nov 25, 2:50 AM)59% (Nov 23, 12:50 PM)29.50 "Hg (Nov 16, 5:50 AM)
Average43 °F89%29.97 "Hg
* Reported Nov 13 5:20 AM — Nov 28 5:50 AM, Rheda-Wiedenbrück, Weather by CustomWeather, © 2014

Note: Actual official high and low records may vary slightly from our data, if they occured in-between our weather recording intervals... More about our weather records

Advertising

Rheda-Wiedenbrück weather history for previous 24 hours

 ConditionsComfort  
Time TempWeatherWind HumidityBarometerVisibility
5:50 AM
Nov 28
36 °FClear.17 mph93%29.80 "Hg5 mi
5:20 AM36 °FClear.22 mph93%29.80 "Hg10 mi
4:50 AM36 °FClear.18 mph93%29.80 "Hg10 mi
4:20 AM37 °FClear.17 mph93%29.80 "Hg10 mi
3:50 AM37 °FClear.17 mph93%29.80 "Hg10 mi
3:20 AM37 °FClear.13 mph93%29.80 "Hg10 mi
2:50 AM37 °FClear.18 mph87%29.80 "Hg10 mi
2:20 AM37 °FClear.21 mph93%29.80 "Hg10 mi
1:50 AM37 °FClear.17 mph93%29.80 "Hg10 mi
1:20 AM37 °FClear.16 mph93%29.77 "Hg10 mi
12:50 AM39 °FClear.18 mph87%29.80 "Hg10 mi
12:20 AM39 °FClear.15 mph87%29.80 "Hg10 mi
11:50 PM
Nov 27
39 °FClear.18 mph87%29.80 "Hg10 mi
11:20 PM39 °FClear.18 mph87%29.77 "Hg6 mi
10:50 PM39 °FClear.15 mph87%29.80 "Hg6 mi
10:20 PM39 °FClear.16 mph87%29.80 "Hg6 mi
9:50 PM39 °FClear.16 mph87%29.80 "Hg6 mi
9:20 PM39 °FClear.14 mph87%29.80 "Hg6 mi
8:50 PM39 °FSprinkles. Clear.16 mph87%29.80 "Hg6 mi
8:20 PM39 °FSprinkles. Clear.15 mph87%29.77 "Hg6 mi
7:50 PM39 °FClear.14 mph81%29.77 "Hg10 mi
7:20 PM39 °FClear.13 mph81%29.80 "Hg10 mi
6:50 PM39 °FClear.15 mph81%29.80 "Hg10 mi
6:20 PM39 °FClear.14 mph81%29.80 "Hg10 mi
5:50 PM39 °FClear.14 mph81%29.77 "Hg10 mi
5:20 PM39 °FClear.13 mph81%29.77 "Hg10 mi
4:50 PM39 °FClear.12 mph81%29.77 "Hg5 mi
4:20 PM39 °FClear.13 mph81%29.77 "Hg4 mi
3:50 PM39 °FClear.12 mph81%29.77 "Hg4 mi
3:20 PM41 °FSunny.9 mph76%29.77 "Hg10 mi
2:50 PM41 °FSunny.10 mph76%29.77 "Hg10 mi
2:20 PM41 °FSunny.12 mph76%29.77 "Hg10 mi
1:50 PM41 °FSunny.12 mph76%29.80 "Hg10 mi
1:20 PM41 °FSunny.12 mph76%29.80 "Hg10 mi
12:50 PM41 °FSunny.9 mph76%29.80 "Hg10 mi
12:20 PM39 °FSunny.12 mph81%29.80 "Hg10 mi
11:50 AM39 °FSunny.14 mph81%29.80 "Hg10 mi
11:20 AM39 °FSunny.14 mph81%29.80 "Hg10 mi
10:50 AM39 °FSunny.15 mph81%29.83 "Hg10 mi
10:20 AM39 °FSunny.13 mph81%29.83 "Hg10 mi
9:20 AM37 °FSunny.15 mph87%29.83 "Hg10 mi
8:50 AM37 °FSunny.15 mph81%29.83 "Hg10 mi
8:20 AM37 °FSunny.14 mph81%29.83 "Hg10 mi
7:50 AM36 °FClear.12 mph87%29.83 "Hg10 mi
7:20 AM37 °FClear.10 mph81%29.83 "Hg10 mi
Weather by CustomWeather, © 2014

See weather overviewHow to use our weather pages